Location: Unspecified
(0.0000°N, 0.0000°E)
Time: 17:47:33
(UTC+00:00)

Altair - All Passes

Search period start: 18 January 2020 00:00
Search period end: 28 January 2020 00:00
Orbit: 1502 x 1682 km, 47.2° (Epoch: 17 January)

Date Brightness Start Highest point End Pass type
(mag) Time Alt. Az. Time Alt. Az. Time Alt. Az.
18 Jan - 06:24:08 10° SSW 06:33:13 44° SE 06:42:33 10° ENE daylight
18 Jan - 08:28:48 10° WSW 08:37:52 41° NW 08:47:11 10° NNE daylight
18 Jan - 17:12:54 10° N 17:18:39 17° NE 17:24:16 10° E daylight
18 Jan - 19:14:01 10° NW 19:23:37 89° NE 19:32:54 10° SE visible
18 Jan - 21:22:48 10° W 21:28:19 17° SW 21:33:49 10° S visible
19 Jan - 05:59:13 10° SSW 06:08:02 39° SE 06:17:05 10° ENE daylight
19 Jan - 08:03:25 10° WSW 08:12:39 46° NW 08:22:11 10° NNE daylight
19 Jan - 16:48:26 10° NNE 16:53:23 15° NE 16:58:13 10° ENE daylight
19 Jan - 18:48:50 10° NW 18:58:27 81° NE 19:07:45 10° SE visible
19 Jan - 20:56:51 10° W 21:03:07 20° SW 21:09:19 10° S visible
20 Jan - 05:34:20 10° SSW 05:42:50 35° SE 05:51:33 10° ENE visible
20 Jan - 07:38:03 10° WSW 07:47:27 52° NW 07:57:08 10° NNE daylight
20 Jan - 16:24:14 10° NNE 16:28:05 13° NE 16:31:52 10° ENE daylight
20 Jan - 18:23:43 10° NNW 18:33:19 72° NE 18:42:34 10° SE visible
20 Jan - 20:31:01 10° W 20:37:54 23° SW 20:44:41 10° S visible
21 Jan - 05:09:29 10° S 05:17:38 31° SE 05:25:57 10° ENE visible
21 Jan - 07:12:45 10° SW 07:22:15 58° NW 07:32:05 10° NNE daylight
21 Jan - 16:00:37 10° NNE 16:02:46 11° NE 16:04:54 10° NE daylight
21 Jan - 17:58:36 10° NNW 18:08:09 65° NE 18:17:22 10° SE daylight
21 Jan - 20:05:18 10° W 20:12:42 26° SW 20:19:59 10° S visible
22 Jan - 04:44:42 10° S 04:52:25 27° SE 05:00:18 10° ENE visible
22 Jan - 06:47:29 10° SW 06:57:03 65° NW 07:06:59 10° NNE daylight
22 Jan - 08:59:46 10° WNW 09:02:33 11° NW 09:05:20 10° NNW daylight
22 Jan - 17:33:31 10° NNW 17:42:59 58° NE 17:52:07 10° SE daylight
22 Jan - 19:39:39 10° WNW 19:47:30 29° SW 19:55:13 10° S visible
23 Jan - 04:19:58 10° S 04:27:13 24° SE 04:34:35 10° E visible
23 Jan - 06:22:15 10° SW 06:31:52 72° NW 06:41:51 10° NNE daylight
23 Jan - 08:32:58 10° WNW 08:37:12 13° NW 08:41:31 10° NNW daylight
23 Jan - 17:08:27 10° NNW 17:17:49 52° NE 17:26:50 10° ESE daylight
23 Jan - 19:14:04 10° WNW 19:22:19 33° SW 19:30:24 10° SSE visible
24 Jan - 03:55:19 10° S 04:01:58 21° SE 04:08:45 10° E visible
24 Jan - 05:57:03 10° SW 06:06:42 80° NW 06:16:42 10° NE daylight
24 Jan - 08:06:38 10° WNW 08:11:53 15° NW 08:17:14 10° NNW daylight
24 Jan - 16:43:26 10° NNW 16:52:38 46° NE 17:01:30 10° ESE daylight
24 Jan - 18:48:33 10° WNW 18:57:09 37° SW 19:05:33 10° SSE visible
25 Jan - 03:30:46 10° S 03:36:44 18° SE 03:42:48 10° E visible
25 Jan - 05:31:53 10° SW 05:41:31 88° NW 05:51:31 10° NE visible
25 Jan - 07:40:34 10° W 07:46:35 18° NW 07:52:44 10° N daylight
25 Jan - 16:18:25 10° NNW 16:27:27 41° NE 16:36:08 10° ESE daylight
25 Jan - 18:23:05 10° WNW 18:31:59 42° SW 18:40:39 10° SSE visible
26 Jan - 03:06:20 10° SSE 03:11:29 16° SE 03:16:42 10° E visible
26 Jan - 05:06:45 10° SW 05:16:20 84° SE 05:26:18 10° NE visible
26 Jan - 07:14:40 10° W 07:21:18 20° NW 07:28:07 10° N daylight
26 Jan - 15:53:27 10° NNW 16:02:15 37° NE 16:10:43 10° ESE daylight
26 Jan - 17:57:39 10° WNW 18:06:49 48° SW 18:15:43 10° SSE daylight
27 Jan - 02:42:09 10° SSE 02:46:13 13° SE 02:50:20 10° ESE visible
27 Jan - 04:41:40 10° SW 04:51:11 75° SE 05:01:04 10° NE visible
27 Jan - 06:48:52 10° W 06:56:02 23° NW 07:03:24 10° N daylight
27 Jan - 15:28:31 10° NNW 15:37:02 33° NE 15:45:14 10° ESE daylight
27 Jan - 17:32:16 10° NW 17:41:39 54° SW 17:50:44 10° SSE daylight
